HS5FXK-3 Weather Reports


time (UTC)temp
F
wind
direction
speed
knots
gust
knots
rain 1hr
in
rain 24hr
in
rain mn
in
humidity
%
barometer
mb
20260505121145 88 0 0.0 0.0 0.00 0.00 0.00 70 976.0
20260505115845 89 0 0.0 0.0 0.00 0.00 0.00 71 976.0
20260505114331 90 0 0.0 0.0 0.00 0.00 0.00 64 976.0
20260505112818 91 0 0.0 0.0 0.00 0.00 0.00 64 976.0
20260505111306 91 0 0.0 0.0 0.00 0.00 0.00 62 976.0
20260505101232 92 0 0.0 0.0 0.00 0.00 0.00 60 976.0
20260505095715 93 0 0.0 0.0 0.00 0.00 0.00 60 976.0
20260505094211 93 0 0.0 0.0 0.00 0.00 0.00 59 976.0
20260505092636 93 0 0.0 0.0 0.00 0.00 0.00 56 976.0
20260505091123 94 0 0.0 0.0 0.00 0.00 0.00 53 976.0
20260505085610 96 0 0.0 0.0 0.00 0.00 0.00 49 977.0
20260505084057 96 0 0.0 0.0 0.00 0.00 0.00 50 977.0
20260505083336 96 0 0.0 0.0 0.00 0.00 0.00 49 977.0
20260505081823 96 0 0.0 0.0 0.00 0.00 0.00 49 977.0
20260505080310 97 0 0.0 0.0 0.00 0.00 0.00 47 977.0
20260505075256 97 0 0.0 0.0 0.00 0.00 0.00 47 978.0
20260505073743 99 0 0.0 0.0 0.00 0.00 0.00 47 978.0
20260505072230 97 0 0.0 0.0 0.00 0.00 0.00 48 978.0
20260505070718 96 0 0.0 0.0 0.00 0.00 0.00 50 979.0
20260505065205 96 0 0.0 0.0 0.00 0.00 0.00 51 979.0
20260505063652 96 0 0.0 0.0 0.00 0.00 0.00 52 979.0
20260505062142 96 0 0.0 0.0 0.00 0.00 0.00 53 980.0
20260505061850 94 0 0.0 0.0 0.00 0.00 0.00 55 980.0
20260505060612 93 0 0.0 0.0 0.00 0.00 0.00 56 980.0
20260505055058 95 0 0.0 0.0 0.00 0.00 0.00 56 981.0
20260505053604 95 0 0.0 0.0 0.00 0.00 0.00 56 981.0
20260505052031 93 0 0.0 0.0 0.00 0.00 0.00 58 981.0
20260505050518 93 0 0.0 0.0 0.00 0.00 0.00 58 982.0
20260505040424 88 0 0.0 0.0 0.00 0.00 0.00 73 983.0
20260505034935 87 0 0.0 0.0 0.00 0.00 0.00 74 983.0
20260505034647 86 0 0.0 0.0 0.00 0.00 0.00 75 983.0
20260505034058 85 0 0.0 0.0 0.00 0.00 0.00 81 983.0
20260505033610 85 0 0.0 0.0 0.00 0.00 0.00 82 983.0
20260505033205 84 0 0.0 0.0 0.00 0.00 0.00 83 983.0
20260505031639 83 0 0.0 0.0 0.00 0.00 0.00 89 983.0
20260505030126 83 0 0.0 0.0 0.00 0.00 0.00 92 983.0
20260505024617 83 0 0.0 0.0 0.00 0.00 0.00 93 983.0
20260505023100 82 0 0.0 0.0 0.00 0.00 0.00 94 983.0
20260505021436 81 0 0.0 0.0 0.00 0.00 0.00 98 983.0
20260505015923 80 0 0.0 0.0 0.00 0.00 0.00 99 983.0
20260505015426 81 0 0.0 0.0 0.00 0.00 0.00 99 983.0
20260505013913 81 0 0.0 0.0 0.00 0.00 0.00 99 983.0
20260505012400 80 0 0.0 0.0 0.00 0.00 0.00 99 983.0
20260505010848 81 0 0.0 0.0 0.00 0.00 0.00 99 982.0
20260505005335 81 0 0.0 0.0 0.00 0.00 0.00 99 982.0
20260505003821 80 0 0.0 0.0 0.00 0.00 0.00 99 982.0
20260505002309 80 0 0.0 0.0 0.00 0.00 0.00 99 982.0
20260505000756 80 0 0.0 0.0 0.00 0.00 0.00 99 982.0
20260504235243 79 0 0.0 0.0 0.00 0.00 0.00 99 982.0
20260504233729 79 0 0.0 0.0 0.00 0.00 0.00 99 981.0
20260504232217 79 0 0.0 0.0 0.00 0.00 0.00 99 981.0
20260504230703 78 0 0.0 0.0 0.00 0.00 0.00 99 981.0
20260504225151 78 0 0.0 0.0 0.00 0.00 0.00 99 981.0
20260504223638 78 0 0.0 0.0 0.00 0.00 0.00 99 980.0
20260504222126 78 0 0.0 0.0 0.00 0.00 0.00 99 980.0
20260504220613 78 0 0.0 0.0 0.00 0.00 0.00 99 980.0
20260504215101 78 0 0.0 0.0 0.00 0.00 0.00 99 980.0
20260504213548 78 0 0.0 0.0 0.00 0.00 0.00 99 980.0
20260504212358 78 0 0.0 0.0 0.00 0.00 0.00 99 980.0
20260504210845 78 0 0.0 0.0 0.00 0.00 0.00 99 980.0
20260504205333 79 0 0.0 0.0 0.00 0.00 0.00 99 980.0
20260504203820 79 0 0.0 0.0 0.00 0.00 0.00 99 980.0
20260504202307 79 0 0.0 0.0 0.00 0.00 0.00 99 980.0
20260504200849 79 0 0.0 0.0 0.00 0.00 0.00 99 980.0
20260504195337 80 0 0.0 0.0 0.00 0.00 0.00 99 980.0
20260504193951 80 0 0.0 0.0 0.00 0.00 0.00 99 981.0
20260504192439 79 0 0.0 0.0 0.00 0.00 0.00 99 981.0
20260504190927 79 0 0.0 0.0 0.00 0.00 0.00 99 981.0
20260504185414 79 0 0.0 0.0 0.00 0.00 0.00 99 981.0
20260504183902 79 0 0.0 0.0 0.00 0.00 0.00 99 981.0
20260504182349 79 0 0.0 0.0 0.00 0.00 0.00 99 981.0
20260504180836 79 0 0.0 0.0 0.00 0.00 0.00 99 981.0
20260504175324 79 0 0.0 0.0 0.00 0.00 0.00 99 982.0
20260504173812 79 0 0.0 0.0 0.00 0.00 0.00 97 982.0
20260504172259 79 0 0.0 0.0 0.00 0.00 0.00 99 982.0
20260504170746 80 0 0.0 0.0 0.00 0.00 0.00 99 982.0
20260504150608 86 0 0.0 0.0 0.00 0.00 0.00 69 980.0
20260504140518 89 0 0.0 0.0 0.00 0.00 0.00 57 978.0